Flag for Australia Weather past 2 weeks in Lord Howe Island, Lord Howe Island, Australia

Now
72 °F

Overcast.


Feels Like: 70 °F
Forecast: 74 / 76 °F
Wind: 18 mph from Southwest

Location: Lord Howe Island

Current Time: Jan 29, 2015 at 7:45:20 AM

Latest Report: Jan 29, 2015 at 6:00 AM


Visibility: 13 mi

Pressure: 29.59 "Hg

Humidity: 89%

Dew point: 69 °F

Location of Lord Howe IslandLocation

Historic Weather in Lord Howe Island — Graph

°F

Lord Howe Island temperature yesterday

Maximum temperature yesterday: 77 °F (at 2:00 PM)
Minimum temperature yesterday: 73 °F (at 9:00 AM)
Average temperature yesterday: 75 °F

Past Weeks' High & Low Weather Summary

 TemperatureHumidityPressure
High81 °F (Jan 15, 3:00 PM)97% (Jan 24, 12:00 PM)29.98 "Hg (Jan 24, 12:00 PM)
Low67 °F (Jan 17, 6:00 AM)59% (Jan 18, 11:00 AM)29.50 "Hg (Jan 28, 6:00 PM)
Average75 °F80%29.78 "Hg
* Reported Jan 14 6:00 AM — Jan 29 6:00 AM, Lord Howe Island, Weather by CustomWeather, © 2014

Note: Actual official high and low records may vary slightly from our data, if they occured in-between our weather recording intervals... More about our weather records

Advertising

Lord Howe Island weather history for previous 24 hours

 ConditionsComfort  
Time TempWeatherWind HumidityBarometerVisibility
6:00 AM
Jan 29
72 °FOvercast.18 mph89%29.59 "Hg12 mi
5:00 AM72 °FMild.20 mph92%29.57 "HgN/A
3:00 AM73 °FOvercast.17 mph86%29.57 "HgN/A
2:00 AM73 °FMild.14 mph87%29.57 "HgN/A
12:00 AM72 °FLow clouds.13 mph91%29.59 "HgN/A
11:00 PM
Jan 28
73 °FMild.14 mph85%29.59 "HgN/A
9:00 PM74 °FLow clouds.12 mph91%29.59 "HgN/A
8:00 PM75 °FMild.12 mph90%29.58 "HgN/A
6:00 PM75 °FLow clouds.10 mph91%29.50 "HgN/A
5:00 PM75 °FMild.13 mph92%29.55 "HgN/A
3:00 PM77 °FLow clouds.13 mph88%29.55 "Hg12 mi
2:00 PM77 °FWarm.7 mph89%29.57 "HgN/A
12:00 PM76 °FDrizzle. Low clouds.10 mph94%29.57 "Hg4 mi
11:00 AM76 °FMild.9 mph91%29.59 "HgN/A
9:00 AM73 °FThundershowers. Low clouds.14 mph95%29.61 "Hg2 mi
8:00 AM74 °FMild.7 mph93%29.60 "HgN/A
Weather by CustomWeather, © 2014

See weather overviewHow to use our weather pages